Погода в Аланапе

Россия / Хабаровский край     50°00′48″N   131°59′27″E
темп.,
°C
ветер,
м/с
пор.,
м/с
влажн.,
%
обл.,
%
осадки,
мм/ч
давл.,
гПа
погр.,
м
12 мая, ср
ср1201:00+3вюв119674 0.0 101710
04:00+2в1298100 0.0 101628
07:00+3в2693100 0.0 1015201
10:00+9вюв5971100 0.0 1011887
13:00+11юв71160100 0.0 10091284
16:00+8юв61482100 1.3 10081369
19:00+8юв5118449 0.9 1006753
22:00+7вюв41090100 0.9 1006546
13 мая, чт
чт1301:00+7вюв51195100 0.5 1004596
04:00+7вюв4991100 0.9 1003458
07:00+6юв3795100 0.7 1003356
10:00+7вюв3694100 0.9 1003334
13:00+10юв3580100 2.9 10041062
16:00+8ююз2693100 5.0 1004407
19:00+8ю2493100 4.2 1005315
22:00+7зюз389498 6.1 1006489
14 мая, пт
пт1401:00+7з279584 0.3 1007448
04:00+7з2795100 0.5 1008548
07:00+7з2795100 0.1 1009475
10:00+10зюз117762 0.1 1010682
13:00+15ю2251100 0.0 10091138
16:00+17юв2343100 0.0 10071218
19:00+14в3758100 0.0 1005377
22:00+12вюв3971100 0.0 1003300
15 мая, сб
сб1501:00+12юв51168100 0.2 1001678
04:00+10юв51193100 6.5 998605
07:00+9з3894100 7.1 998617
10:00+11з477364 7.2 9981182
13:00+14зюз694336 0.4 9962287
16:00+11зюз71361100 0.6 9971731
19:00+9з5127552 0.7 9981469
22:00+5зсз41090100 0.9 1001976
16 мая, вс
вс1601:00+5з4108686 0.1 1002731
04:00+6з398582 0.1 1002749
07:00+6зюз3990100 0.0 1002590
10:00+8зсз597498 0.1 1002963
13:00+12зсз5858100 0.1 10011674
16:00+13зсз485192 0.1 10001909
19:00+13зсз34534 0.0 10001401
22:00+6зюз11795 0.0 100110